Content
SEND FEEDBACK

Daily
Averages
Monthly
Summary
France

PONTOISE-CORMEIL, FRANCE


Home > Europe > France
Elevation: 322 feet     Latitude: 49 06N     Longitude: 002 02E

WEATHER
 
SELECT A DAY
Number of Records: 228,000;   Date Range: 7/1/96 - 7/28/14
 
SHARE

PRINT THIS DATA

[ ← Previous Day ]
WEATHER ALMANAC - FEBRUARY 13, 2013
[ Next Day → ]
[ °C ]   °F
Weather ElementAverageHighLow
Temperature32 °F35.6 °F (2:30 pm)30.2 °F (6:00 am)
Dewpoint22.7 °F26.6 °F (12:30 am)21.2 °F (8:00 am)
Humidity68.6 %80 % (12:30 am)60 % (1:30 pm)
Barometer30.21 in30.27 in (12:00 pm)30.09 in (12:30 am)
Wind Speed6.9 mph13.8 mph (8:00 pm)
Weather ElementAverage
Visibility5.9 mi
Wind DirectionE (85.3 °)

Weather ElementTotal
Precipitation---
Heating Degree Days32.1 (Base 65)
Averaged from 47 records on February 13, 2013
WEATHER CONDITIONS BREAKOUT
WIND DIRECTION BREAKOUT
WEATHER BY HOUR - FEBRUARY 13, 2013
[ °C ]   °F
Local TimeTemperatureDewpointHumidityBarometerVisibilityWind DirectionWind SpeedGust SpeedPrecipitationEventsConditions
12:30 AM32.0 °F26.6 °F80 %30.09 in4.3 miNE (40°)8.1 mphOvercast
1:00 AM32.0 °F26.6 °F80 %30.09 in4.3 miNNE (20°)6.9 mphOvercast
1:30 AM32.0 °F24.8 °F75 %30.09 in4.3 miNNE (30°)5.8 mphOvercast
2:00 AM32.0 °F24.8 °F75 %30.12 in4.3 miNNE (20°)5.8 mphOvercast
2:30 AM32.0 °F26.6 °F80 %30.12 in4.3 miNNE (30°)6.9 mphOvercast
3:00 AM32.0 °F24.8 °F75 %30.12 in4.3 miNNE (30°)5.8 mphOvercast
3:30 AM32.0 °F24.8 °F75 %30.12 in5.0 miNE (40°)6.9 mphOvercast
4:00 AM32.0 °F24.8 °F75 %30.12 in5.6 miNE (50°)5.8 mphOvercast
4:30 AM32.0 °F24.8 °F75 %30.12 in5.6 miNNE (30°)4.6 mphOvercast
5:00 AM32.0 °F24.8 °F75 %30.15 in6.2 miNNE (20°)4.6 mphOvercast
5:30 AM32.0 °F23.0 °F69 %30.15 in6.2 miNE (40°)5.8 mphOvercast
6:00 AM30.2 °F23.0 °F75 %30.15 in6.2 miNE (50°)8.1 mphOvercast
6:30 AM30.2 °F23.0 °F75 %30.15 in6.2 miNE (40°)5.8 mphOvercast
7:00 AM30.2 °F23.0 °F75 %30.18 in6.2 miNE (50°)5.8 mphOvercast
7:30 AM30.2 °F23.0 °F75 %30.18 in6.2 miNE (50°)8.1 mphOvercast
8:00 AM30.2 °F21.2 °F69 %30.18 in6.2 miNNE (30°)5.8 mphOvercast
8:30 AM30.2 °F23.0 °F75 %30.21 in6.2 miEast (90°)4.6 mphOvercast
9:00 AM30.2 °F23.0 °F75 %30.21 in6.2 miENE (60°)4.6 mphOvercast
9:30 AM30.2 °F21.2 °F69 %30.21 in6.2 miENE (70°)4.6 mphOvercast
10:00 AM32.0 °F21.2 °F64 %30.24 in6.2 miEast (80°)4.6 mphOvercast
10:30 AM32.0 °F21.2 °F64 %30.24 in6.2 miENE (60°)5.8 mphOvercast
11:00 AM32.0 °F21.2 °F64 %30.24 in6.2 miEast (80°)4.6 mphOvercast
11:30 AM32.0 °F21.2 °F64 %30.24 in6.2 miSE (140°)4.6 mphOvercast
12:00 PM32.0 °F23.0 °F69 %30.27 in6.2 miSSE (160°)5.8 mphOvercast
12:30 PM32.0 °F21.2 °F64 %30.27 in6.2 miVariable3.5 mphOvercast
1:00 PM33.8 °F23.0 °F65 %30.24 in6.2 miEast (90°)4.6 mphOvercast
1:30 PM33.8 °F21.2 °F60 %30.24 in6.2 miVariable2.3 mphOvercast
2:00 PM33.8 °F21.2 °F60 %30.24 in6.2 miVariable2.3 mphMostly Cloudy
2:30 PM35.6 °F23.0 °F60 %30.24 in6.2 miESE (110°)4.6 mphMostly Cloudy
3:00 PM35.6 °F23.0 °F60 %30.24 in6.2 miENE (60°)8.1 mphMostly Cloudy
3:30 PM35.6 °F23.0 °F60 %30.24 in6.2 miESE (110°)6.9 mphOvercast
4:00 PM35.6 °F23.0 °F60 %30.24 in6.2 miENE (70°)5.8 mphMostly Cloudy
4:30 PM35.6 °F23.0 °F60 %30.24 in6.2 miSouth (180°)4.6 mphMostly Cloudy
5:00 PM35.6 °F23.0 °F60 %30.24 in6.2 miSSE (160°)8.1 mphMostly Cloudy
5:30 PM33.8 °F21.2 °F60 %30.24 in6.2 miSSE (150°)6.9 mphPartly Cloudy
6:00 PM32.0 °F21.2 °F64 %30.24 in6.2 miSSE (150°)6.9 mphPartly Cloudy
6:30 PM32.0 °F21.2 °F64 %30.24 in6.2 miSSE (150°)9.2 mph
7:00 PM32.0 °F21.2 °F64 %30.27 in6.2 miSE (140°)11.5 mph
7:30 PM32.0 °F21.2 °F64 %30.27 in6.2 miSE (140°)12.7 mph
8:00 PM30.2 °F21.2 °F69 %30.27 in6.2 miSE (130°)13.8 mph
8:30 PM30.2 °F21.2 °F69 %30.27 in6.2 miSE (140°)11.5 mph
9:00 PM30.2 °F21.2 °F69 %30.27 in6.2 miSSE (150°)9.2 mph
9:30 PM30.2 °F21.2 °F69 %30.27 in6.2 miSSE (150°)11.5 mph
10:00 PM30.2 °F21.2 °F69 %30.27 in6.2 miSSE (150°)11.5 mph
10:30 PM30.2 °F21.2 °F69 %30.24 in6.2 miSSE (150°)10.4 mph
11:00 PM30.2 °F21.2 °F69 %30.24 in6.2 miSSE (160°)10.4 mph
11:30 PM30.2 °F21.2 °F69 %30.24 in6.2 miSSE (160°)10.4 mph
Hourly data recorded from LFPT, located miles away from Pontoise-Cormeil, France







STORIES FROM OUR PARTNERS